Location: Peebles
(55.6412°N, 3.1714°W)
Time: 19:44:04
(UTC+01:00)

Envisat - Pass Details

Date: 23 February 2024
Orbit: 762 x 764 km, 98.3° (Epoch: 20 April)

Event Time Altitude Azimuth Distance (km) Brightness Sun altitude
Rises 03:01:55 0° 20° (NNE) 3,246 7.0 -35.2°
Reaches altitude 10° 03:04:27 10° 30° (NNE) 2,315 6.2 -34.9°
Enters shadow 03:08:21 33° 77° (ENE) 1,286 4.5 -34.5°
